Wind_Speed
49 49 49 49 49 49 50 50 50 50 51 52 52 52 53 53 54 54 54 54 54 54 55 55 55 55 55 55 56 56 56 56 56 56 56 56 56 56 56 56 56 56 57 57 58 58 59 60 60 61 61 62 62 62 62 61 61 62 62 63 63 63 62 62 62 62 62 61 61 61 60 60 60 60 59 59 59 60 60 60 60 60 60 59 59 59
51 52 52 52 52 52 52 53 53 53 54 54 55 55 56 56 57 57 57 57 57 58 58 58 58 58 58 58 58 58 58 58 58 58 58 58 58 58 58 58 57 57 57 58 58 58 59 59 60 61 62 62 63 63 63 62 62 62 62 63 63 64 64 64 64 64 64 64 64 63 63 62 62 61 61 60 60 60 60 60 60 60 59 59 59 59
53 54 54 54 54 54 55 55 56 56 56 57 58 58 58 58 59 59 60 60 60 60 60 60 60 60 61 61 61 61 61 61 60 60 60 60 59 59 59 59 59 58 58 58 58 58 59 59 60 61 62 62 63 63 64 64 63 63 62 62 63 64 65 65 66 66 66 67 66 66 66 65 64 63 62 61 61 61 60 60 60 59 59 59 58 58
56 56 57 57 57 57 57 58 58 58 58 59 60 60 60 60 61 61 61 61 62 62 62 62 62 62 62 62 63 63 63 63 63 62 62 61 61 61 60 60 60 59 59 59 59 59 59 59 60 61 61 62 63 64 64 64 64 64 63 63 63 63 64 65 66 67 68 68 68 68 68 67 66 65 63 62 61 61 60 60 59 59 58 58 58 57
58 58 59 59 59 59 60 60 60 60 60 61 61 62 62 62 63 63 63 63 63 63 63 63 63 63 63 63 64 64 64 64 64 64 64 63 63 62 62 61 61 61 60 60 60 60 60 60 60 60 61 62 63 64 64 65 65 65 65 64 63 63 63 64 65 66 68 68 69 69 69 68 67 65 64 62 61 60 60 59 59 58 58 57 57 56
60 61 61 61 62 62 62 62 62 62 62 63 63 64 64 64 64 64 64 64 64 64 64 64 64 64 64 64 64 64 65 65 65 65 65 64 64 63 63 62 62 61 61 61 61 60 60 60 60 60 61 62 63 63 64 65 65 65 65 65 64 63 63 63 64 65 66 67 67 68 68 67 66 65 63 62 61 60 59 58 58 57 57 56 56 55
63 63 63 64 64 64 64 64 64 64 64 64 65 65 65 65 66 66 66 66 66 66 65 65 65 65 65 65 65 65 65 65 65 66 65 65 65 64 64 63 63 62 62 62 61 61 61 61 61 61 61 61 62 63 64 65 65 66 66 65 65 64 63 63 63 63 64 64 65 65 65 65 64 63 62 61 60 59 58 57 57 56 56 56 54 53
65 65 65 65 66 66 66 66 66 66 66 66 66 66 67 67 67 67 67 67 67 67 67 67 66 66 66 66 66 66 66 66 66 66 66 66 65 65 64 64 63 63 63 62 62 62 61 61 61 61 61 61 62 62 63 64 65 66 66 66 65 64 63 62 62 62 62 62 62 62 62 62 62 61 60 59 58 57 57 56 56 56 55 54 53 51
67 67 67 67 67 67 68 68 68 68 68 68 68 68 68 68 68 68 68 68 68 68 68 68 68 68 67 67 67 67 67 66 66 66 66 66 66 66 65 65 64 64 63 63 63 62 62 62 61 61 61 61 61 62 63 64 65 65 66 66 66 65 63 62 61 61 60 60 60 60 60 60 59 59 58 57 57 56 56 55 55 55 54 53 51 49
69 69 69 69 69 69 69 69 70 70 69 69 69 69 69 69 69 70 69 69 69 69 69 69 69 69 69 69 68 68 68 68 67 67 67 67 66 66 66 65 65 64 64 64 63 63 63 62 62 62 61 61 61 62 63 64 64 65 66 66 66 65 64 62 61 60 59 59 58 58 58 58 58 57 57 56 56 55 55 55 54 54 53 51 49 48
71 71 71 71 71 71 71 71 71 71 71 70 71 71 71 71 71 71 71 71 71 70 70 70 70 70 70 70 70 70 69 69 68 68 68 67 67 67 66 66 65 65 64 64 64 63 63 63 63 62 62 62 62 62 62 63 64 65 66 66 66 65 64 62 60 59 58 57 57 57 57 57 57 56 56 55 55 55 54 54 54 53 51 50 48 46
73 73 73 73 73 73 73 73 73 73 72 72 72 72 72 72 72 72 72 73 72 72 72 72 72 71 71 71 71 71 70 70 69 69 69 68 68 67 67 66 66 65 65 64 64 64 64 63 63 63 62 62 62 62 63 63 64 65 66 66 66 65 64 62 60 58 57 57 56 56 56 56 56 56 55 55 55 54 54 53 53 51 50 48 47 45
75 75 75 75 74 74 74 74 74 74 74 73 73 73 74 74 74 74 74 74 74 74 73 73 73 73 72 72 71 71 71 71 70 70 69 69 68 68 67 67 66 66 65 65 64 64 64 64 63 63 63 62 62 63 63 63 64 65 66 66 66 65 64 62 59 58 57 56 55 55 56 56 56 55 55 55 54 54 54 53 52 50 49 47 46 45
76 76 76 76 76 76 76 76 76 76 75 75 75 75 75 76 75 75 75 75 75 75 75 75 74 74 73 72 72 72 71 71 71 70 70 69 69 68 68 67 67 66 65 65 65 64 64 64 63 63 63 63 63 63 63 63 64 65 66 66 66 65 63 61 59 57 56 55 55 55 55 55 55 55 55 55 54 54 53 52 50 49 47 46 45 44
78 78 78 78 77 77 77 77 77 77 77 77 77 76 77 77 77 76 76 76 76 76 76 75 75 75 74 73 72 72 71 71 71 70 70 70 69 69 68 68 67 67 66 65 65 65 65 64 63 63 63 63 63 63 63 64 64 65 65 66 65 64 63 61 59 57 56 55 55 55 55 55 55 55 55 55 54 53 52 51 49 48 47 46 45 44
79 79 79 79 79 79 79 79 79 78 78 78 78 77 77 77 77 77 77 77 77 77 76 75 75 75 74 74 73 72 71 71 71 71 70 69 69 69 68 67 67 67 66 66 65 65 65 64 64 64 63 63 63 63 63 64 64 65 65 65 65 64 63 60 58 57 55 55 55 55 55 55 55 55 55 54 53 52 51 50 48 47 46 45 45 44
81 81 81 81 81 80 80 80 80 80 80 79 79 78 78 78 78 78 77 77 77 76 76 76 75 74 74 74 73 72 71 71 71 71 70 69 69 69 68 68 67 67 67 66 65 65 65 65 64 64 63 63 63 63 63 64 64 64 65 65 65 64 62 60 58 56 55 55 55 55 55 55 55 55 54 53 52 51 50 49 48 47 46 45 44 43
82 82 82 82 82 82 81 81 80 80 80 80 80 79 79 79 78 77 77 77 76 76 75 75 75 74 73 73 73 73 71 70 70 71 70 69 69 69 68 68 67 67 67 66 66 66 65 65 64 64 64 64 64 64 64 64 64 65 65 65 65 64 62 59 57 56 55 55 55 55 55 55 54 54 53 52 51 50 49 48 47 46 45 45 44 43
83 83 82 82 82 82 81 81 81 80 80 80 80 80 79 79 78 77 77 76 76 75 75 74 74 74 73 72 73 73 71 70 70 70 70 69 69 69 68 67 67 67 67 66 66 66 66 65 65 64 64 64 64 64 64 64 64 65 65 65 65 63 61 59 57 55 55 55 55 55 55 54 54 53 52 51 50 49 48 47 47 46 45 44 43 42
83 83 82 82 81 81 81 81 80 80 79 80 80 79 79 79 78 77 77 76 76 75 75 74 74 73 73 72 73 73 72 70 69 69 69 68 68 68 68 67 67 67 67 67 66 66 66 65 65 65 64 64 64 64 64 64 64 65 65 65 64 63 61 59 56 55 54 55 55 55 54 54 53 53 51 50 49 48 47 47 46 46 45 44 43 42
83 82 82 82 81 80 80 80 79 79 78 79 79 79 78 78 77 77 77 76 76 75 75 74 73 73 73 72 72 72 71 70 69 69 69 68 68 68 68 67 67 67 67 67 67 67 66 66 65 65 64 64 64 64 64 64 64 65 65 65 64 62 60 58 56 55 54 54 55 55 54 54 53 52 50 49 48 47 47 47 46 45 44 43 42 42
83 83 83 82 80 79 79 79 78 78 78 77 77 77 78 77 76 76 76 76 75 75 74 74 73 73 72 71 71 71 70 69 69 69 69 68 68 68 68 67 67 67 67 67 67 67 67 66 66 65 65 64 64 64 64 64 64 64 64 64 63 61 59 57 56 54 54 54 54 54 54 53 52 51 49 48 47 47 46 46 46 45 44 43 42 41
84 83 83 82 81 80 79 79 78 78 77 77 77 77 77 76 75 75 75 75 74 74 74 74 73 72 72 71 71 70 70 69 69 69 69 68 68 68 68 67 67 67 67 67 67 67 67 66 66 65 65 64 64 64 63 63 64 64 64 63 62 61 58 57 55 54 54 54 54 54 53 52 51 50 49 48 47 46 46 46 45 45 44 43 42 41
85 84 83 82 81 80 80 79 78 78 77 77 77 77 76 76 75 74 74 74 73 73 73 72 72 71 71 70 70 69 69 69 69 68 68 68 68 68 68 67 67 67 67 67 67 67 67 66 66 66 65 64 64 63 63 63 63 63 63 62 61 59 58 56 55 54 54 54 54 53 52 51 50 49 48 47 46 46 46 46 45 44 44 43 42 42
85 84 83 83 82 81 80 79 79 78 78 77 77 76 76 75 74 74 74 73 72 72 72 71 70 70 70 70 69 69 69 69 68 68 68 68 68 68 68 67 67 67 67 67 67 67 66 66 66 66 65 64 64 63 63 63 63 63 62 61 60 58 57 55 54 54 54 54 53 53 52 51 49 48 47 47 46 46 46 46 45 44 43 43 42 42
84 84 83 83 82 81 81 80 79 78 78 77 76 76 75 75 74 74 73 73 72 71 70 70 70 70 70 69 68 68 69 69 68 68 68 68 68 68 68 68 67 67 67 67 67 67 66 66 66 66 65 64 64 63 62 62 62 62 61 60 59 57 56 55 54 54 54 53 53 52 51 50 49 48 47 46 46 46 46 45 45 44 43 43 42 42
84 83 82 82 81 81 80 80 79 78 77 77 76 76 75 74 73 73 73 72 71 70 70 70 70 70 69 68 68 68 68 68 68 68 68 68 68 68 68 68 68 67 67 67 67 67 66 66 66 66 65 64 63 62 62 62 61 61 60 59 58 56 55 54 53 53 53 53 53 52 51 50 48 47 47 46 46 46 46 45 45 44 43 43 42 42
83 82 82 81 81 80 79 79 78 77 77 76 76 75 74 73 72 72 72 72 71 70 69 70 70 69 68 68 68 68 68 68 68 68 68 68 68 68 69 68 68 67 67 67 67 67 66 66 66 65 64 63 63 62 61 61 61 60 59 58 57 55 54 53 53 53 53 53 52 51 50 49 48 47 46 46 46 46 46 45 45 44 43 43 42 42
83 82 81 80 79 79 78 77 77 76 75 75 75 74 74 73 72 71 72 72 70 69 69 70 69 69 68 68 68 68 68 67 67 68 68 68 69 69 69 69 68 68 68 67 67 67 66 66 65 64 64 63 62 61 61 60 60 59 58 57 55 54 53 53 53 53 53 52 52 51 50 49 48 47 46 46 46 46 46 45 45 44 43 43 42 42
82 81 80 79 79 78 77 76 76 75 74 74 73 73 73 72 71 71 71 71 70 69 69 69 69 68 68 68 68 68 67 68 68 68 68 69 69 70 70 69 68 68 68 67 67 66 66 65 64 63 63 62 61 61 60 59 59 58 57 56 54 53 52 52 52 52 52 52 52 51 50 49 48 47 46 46 46 46 46 45 45 44 43 42 42 42
81 79 78 78 77 77 76 75 75 74 73 72 72 72 72 71 70 70 70 69 69 69 68 68 68 68 68 68 68 68 68 68 68 68 68 69 70 70 70 69 68 68 67 66 66 65 65 64 63 62 61 61 60 60 59 58 58 57 56 55 53 52 52 52 52 52 52 52 51 50 49 48 48 47 46 46 46 46 46 45 44 44 43 42 42 42
79 78 77 76 76 75 74 74 73 72 71 71 71 70 70 69 69 68 68 68 68 68 68 68 68 68 68 68 68 68 68 68 69 68 68 68 69 70 69 68 68 68 67 66 65 64 64 63 62 61 60 59 59 59 58 57 56 56 55 54 52 52 51 51 51 51 51 51 51 50 49 48 47 47 46 46 46 46 46 45 44 43 43 42 42 42
78 77 76 75 74 73 73 72 71 70 70 69 69 69 68 68 67 67 67 67 68 68 68 68 68 69 69 68 68 68 68 68 68 68 68 68 68 69 68 67 67 66 66 65 64 63 62 62 61 60 59 58 58 57 57 56 55 54 53 52 52 51 51 51 51 51 51 51 50 50 49 48 47 47 46 46 46 46 46 45 44 43 43 43 43 43
76 75 74 73 73 72 71 70 69 68 68 67 67 67 66 66 66 66 66 66 67 67 67 68 68 68 69 69 69 69 69 69 68 68 67 67 67 68 67 66 65 65 64 63 62 61 61 60 59 58 57 57 56 56 55 55 54 53 52 51 51 51 50 50 50 50 50 50 50 49 48 48 47 47 47 47 46 46 46 45 44 44 43 43 43 44
75 74 73 72 71 70 69 68 67 66 66 66 65 65 65 65 65 65 66 66 66 66 67 67 67 68 68 68 69 69 68 68 68 67 66 66 66 66 65 64 64 63 62 61 60 59 59 58 58 57 56 55 55 54 54 53 53 52 51 51 50 50 50 50 50 50 50 49 49 49 48 47 47 47 47 47 46 46 46 45 44 44 44 44 44 44
74 72 72 70 69 67 66 66 65 64 64 64 64 64 64 64 64 65 65 65 65 66 66 66 67 67 67 67 67 67 67 66 66 65 64 64 64 63 62 62 61 60 59 59 58 57 56 56 56 55 54 53 53 53 53 52 51 51 50 50 49 49 49 49 49 49 49 49 48 48 48 47 47 47 47 47 46 46 45 45 45 44 44 45 45 45
72 71 70 68 66 65 64 63 63 63 62 62 63 63 63 63 63 64 64 64 64 65 65 66 66 66 66 65 65 64 65 64 64 63 62 61 61 60 59 59 58 57 56 56 55 55 54 54 53 53 52 52 51 51 51 51 50 50 49 49 49 49 49 49 49 49 49 48 48 48 47 47 47 47 47 47 46 46 46 45 45 45 45 45 45 46
70 69 67 65 63 62 61 61 61 61 61 61 61 62 62 62 62 63 63 62 62 62 63 64 64 64 64 63 63 63 63 62 61 60 59 59 58 57 56 56 55 54 54 53 53 53 52 51 51 51 50 50 50 50 49 49 49 48 48 48 48 48 49 49 49 49 48 48 48 47 47 47 47 47 47 47 46 46 46 46 46 46 46 46 46 46
68 65 63 61 60 59 59 59 60 60 60 60 60 60 60 60 60 60 60 59 59 59 60 60 60 60 60 60 60 59 59 59 58 57 56 55 54 53 53 53 52 52 51 51 51 50 50 49 49 49 48 48 48 48 48 48 47 47 47 47 48 48 49 49 49 48 48 47 47 47 47 47 47 47 47 47 47 46 46 46 46 47 47 47 47 47
63 61 59 58 57 56 57 57 58 58 58 58 58 58 57 57 56 56 55 55 55 56 56 56 56 56 56 56 56 55 55 54 54 53 52 51 51 50 50 50 49 49 49 49 48 48 48 48 47 47 47 46 46 46 46 46 46 47 47 47 48 48 48 48 48 48 47 47 47 47 47 47 47 47 47 47 47 47 47 47 47 47 48 48 48 48
58 57 56 55 54 54 55 56 56 56 56 55 55 54 54 52 51 50 49 49 50 51 52 52 52 52 52 52 52 52 51 50 50 49 49 48 48 47 47 47 47 46 46 46 46 46 46 46 45 45 45 45 45 45 45 45 46 46 46 47 48 48 48 48 48 47 47 47 46 46 46 47 47 47 47 47 47 47 47 47 48 48 48 48 48 48
54 53 53 52 52 52 53 53 54 53 53 52 51 50 49 47 44 42 42 43 45 47 47 47 47 48 48 49 48 48 47 47 47 46 46 45 45 44 44 44 44 44 44 43 43 44 44 44 43 43 43 43 43 44 44 45 45 46 46 47 47 47 47 47 47 47 46 46 46 46 46 46 46 46 46 46 47 47 47 47 48 48 48 48 48 49
51 50 50 50 50 50 50 51 51 50 49 48 47 46 44 41 38 37 38 41 43 44 44 44 44 45 45 45 45 45 44 44 44 44 43 43 43 42 42 42 41 41 41 41 41 41 42 42 42 42 42 42 43 43 44 45 45 45 46 46 46 46 45 46 46 46 45 45 46 46 46 46 46 46 46 46 46 46 47 47 47 47 48 48 48 49
48 48 48 48 48 48 48 47 47 46 45 44 43 41 39 36 34 35 38 40 42 43 42 42 41 41 41 41 41 41 41 41 41 41 41 40 40 40 39 39 39 38 39 39 39 40 40 40 41 41 41 41 42 43 43 44 44 45 45 45 45 44 44 44 45 45 45 45 45 45 46 46 46 45 45 45 45 46 46 46 47 47 48 48 49 50
46 46 46 46 45 45 44 44 44 43 42 41 39 37 34 33 33 36 38 40 41 41 40 38 37 37 37 37 37 38 38 38 38 38 38 38 38 37 37 36 36 36 37 37 38 39 39 40 40 40 40 41 41 42 43 43 43 44 44 44 43 43 43 43 44 44 44 44 45 45 45 45 45 44 44 44 44 45 45 46 46 47 48 49 49 50
46 45 44 43 43 42 41 41 41 40 39 37 35 33 32 32 34 36 38 39 39 38 36 34 34 33 34 34 34 35 35 35 35 35 35 35 35 35 34 34 34 35 35 36 37 38 38 39 39 39 40 40 41 41 42 42 42 42 42 42 42 42 42 42 43 43 43 44 44 44 44 44 44 43 43 43 44 44 45 46 47 48 48 49 50 51
45 44 42 41 40 40 39 39 38 37 36 34 32 31 31 32 34 36 37 37 36 35 33 32 32 32 33 33 33 33 33 33 33 33 33 33 33 33 33 33 33 34 34 35 36 37 37 38 38 39 39 40 40 41 41 41 41 40 40 41 41 41 41 42 42 42 43 43 43 43 43 43 43 43 43 43 43 44 45 46 47 48 49 50 51 52
44 42 40 39 38 38 37 36 35 34 33 31 30 30 31 33 34 35 35 35 34 33 32 32 32 33 33 33 32 32 32 32 32 32 31 31 31 31 32 32 32 33 34 35 35 36 36 37 37 38 38 39 39 39 40 40 39 39 39 39 40 40 41 41 42 42 42 42 42 42 42 42 42 42 43 43 43 44 45 47 48 49 50 51 52 53
42 40 38 37 36 36 35 34 33 32 31 30 30 30 32 33 34 34 34 34 33 32 32 33 33 33 33 33 32 31 31 31 30 30 30 30 31 31 31 32 32 33 34 34 34 35 36 36 37 38 38 38 38 38 38 38 38 38 38 39 39 39 40 40 41 41 41 41 41 42 42 42 42 42 42 43 43 44 46 47 49 50 51 52 53 53
40 39 37 36 35 34 33 32 32 31 30 30 30 31 32 33 33 34 33 33 32 32 32 33 33 33 33 32 31 31 30 30 30 30 30 30 30 31 31 32 32 33 33 33 34 34 35 36 37 38 38 38 38 37 37 37 37 38 38 38 38 39 39 39 40 40 40 40 41 41 41 42 42 42 43 43 44 45 46 48 50 51 52 53 53 53
39 37 36 34 33 33 32 32 32 31 30 30 30 31 32 33 33 33 33 33 32 32 32 32 32 32 32 31 31 30 30 29 30 30 30 30 30 31 31 32 32 32 33 33 34 34 35 36 36 37 37 37 37 36 36 36 36 37 37 38 38 38 38 38 39 39 39 40 40 41 41 42 42 42 43 44 45 46 47 49 50 52 53 53 53 53
Wind_Direction
278 278 279 280 280 281 281 282 283 283 284 285 285 286 287 288 288 289 289 290 290 291 291 292 292 292 293 293 293 293 292 292 292 292 291 291 291 290 290 290 289 289 289 288 288 287 287 287 287 287 287 287 287 287 286 285 284 282 280 279 278 277 276 276 276 276 276 277 278 280 281 283 284 286 287 288 288 289 289 289 289 289 289 289 289 289
278 279 280 280 280 281 281 282 283 283 284 284 285 286 286 287 288 288 289 289 289 290 290 290 291 291 292 292 292 292 293 293 292 292 292 292 291 291 291 290 290 290 289 289 288 288 288 287 287 287 287 287 287 287 287 286 285 284 282 280 278 277 276 275 275 275 276 277 278 279 281 282 284 285 286 287 288 288 289 289 289 289 289 288 288 288
278 279 279 280 280 281 281 282 282 283 283 284 284 285 285 285 286 287 287 288 288 288 289 289 289 290 290 290 291 291 292 292 292 292 292 292 292 291 291 291 290 290 289 289 289 288 288 287 287 287 286 286 286 287 287 287 286 285 284 282 280 278 277 276 275 275 276 276 277 278 280 281 283 284 285 286 287 288 288 288 288 288 288 288 288 288
278 278 279 279 280 280 281 281 282 282 283 283 283 284 284 284 285 285 286 286 287 287 287 287 288 288 288 289 289 289 290 290 291 291 291 291 291 291 291 291 290 290 290 289 289 289 288 288 287 287 286 286 286 286 286 287 287 286 286 284 283 281 279 277 276 276 276 276 277 278 279 281 282 283 285 286 286 287 287 287 287 287 287 287 287 287
278 278 279 279 279 280 280 280 281 281 282 282 283 283 283 284 284 284 284 285 285 285 286 286 286 286 287 287 287 288 288 289 289 290 290 290 291 291 291 290 290 290 290 289 289 288 288 288 287 287 286 286 286 286 286 286 286 287 286 286 285 283 282 280 278 277 277 277 277 278 279 280 282 283 284 284 285 286 286 286 286 286 286 286 286 287
278 278 278 279 279 279 280 280 280 281 281 281 282 282 283 283 283 283 284 284 284 284 285 285 285 285 286 286 286 286 287 287 288 288 288 289 289 290 290 290 290 290 289 289 289 288 288 288 287 287 286 286 285 285 285 285 286 286 287 286 286 285 284 282 281 279 279 278 278 279 280 280 281 282 283 283 284 284 284 285 285 285 285 285 285 286
277 278 278 278 279 279 279 280 280 280 280 281 281 281 282 282 282 282 283 283 283 283 284 284 284 284 285 285 285 286 286 286 287 287 287 288 288 288 289 289 289 289 289 289 288 288 288 287 287 286 286 285 285 285 285 285 285 286 286 286 286 286 285 284 283 281 280 280 280 280 280 280 281 281 281 282 282 282 283 283 283 283 284 284 284 285
277 278 278 278 279 279 279 280 280 280 280 280 280 281 281 281 281 282 282 282 282 283 283 283 283 284 284 284 284 285 285 285 286 286 286 287 287 287 288 288 289 289 289 288 288 288 287 287 286 286 286 285 285 284 284 284 284 285 285 286 286 286 286 285 284 283 282 281 280 280 280 280 280 280 280 280 280 281 281 282 282 282 283 283 283 283
277 277 278 278 278 279 279 280 280 280 280 280 280 280 280 281 281 281 281 281 282 282 282 282 283 283 283 283 284 284 284 285 285 285 285 286 286 286 287 287 288 288 288 288 288 288 287 287 286 286 285 285 284 284 283 283 283 284 284 285 286 286 286 285 284 283 282 281 281 280 280 279 279 279 279 278 279 279 280 280 281 281 281 281 281 281
277 278 278 278 278 279 279 279 280 280 280 280 280 280 280 280 280 280 280 281 281 281 282 282 282 282 283 283 283 283 284 284 284 284 285 285 285 286 286 286 287 287 287 287 287 287 287 286 286 285 285 284 284 283 283 283 283 283 284 284 285 286 286 286 285 283 282 281 280 280 279 279 278 277 277 277 277 278 278 279 279 280 280 280 279 278
278 278 278 278 279 279 279 279 279 280 280 280 280 280 280 280 280 280 280 281 281 281 281 281 282 282 282 283 283 283 283 283 284 284 284 284 284 285 285 285 286 286 286 287 287 286 286 286 285 285 284 283 283 282 282 282 282 282 283 283 284 285 286 285 285 283 282 281 280 279 278 277 277 276 276 276 276 277 277 278 278 278 278 277 276 275
279 279 279 279 279 279 279 279 280 280 280 280 280 280 280 280 280 280 280 281 281 281 281 281 281 281 282 282 283 283 283 283 283 283 283 283 284 284 284 284 285 285 285 286 286 286 285 285 285 284 283 282 282 281 281 281 281 281 282 283 283 284 285 285 284 283 282 280 279 278 277 276 276 275 275 275 275 276 277 277 277 277 276 275 274 273
279 279 279 279 279 280 280 280 280 280 280 280 280 280 280 280 280 280 280 280 280 280 280 281 281 281 281 282 282 282 282 282 283 283 283 283 283 283 283 283 284 284 284 285 285 285 285 284 284 284 283 282 281 280 280 280 280 280 281 282 283 283 284 284 284 282 281 279 278 277 276 275 274 274 274 274 275 275 276 276 275 275 273 272 271 270
280 280 280 280 280 280 280 280 280 281 281 280 280 280 280 280 280 280 280 280 280 280 280 281 281 281 281 281 281 281 282 282 282 282 282 282 282 282 282 282 282 283 283 283 284 284 283 283 283 283 282 281 280 279 279 279 279 280 280 281 282 283 283 283 283 282 280 279 277 276 275 274 274 273 273 274 274 274 275 274 273 272 271 270 269 268
280 280 280 281 281 281 281 281 281 281 281 281 281 281 280 280 280 280 280 280 280 280 280 281 281 281 281 281 281 281 281 281 281 281 281 281 281 281 281 281 281 282 282 282 282 282 282 282 282 281 281 280 279 279 278 278 278 279 279 280 281 282 282 283 282 281 279 278 276 275 274 274 273 273 273 273 273 273 273 272 271 270 268 267 266 266
281 281 281 281 281 281 281 281 282 281 281 281 281 281 281 281 281 281 281 281 281 281 280 280 281 281 281 281 281 280 280 280 280 280 280 280 280 280 280 280 281 281 281 281 281 281 281 281 281 280 280 279 279 278 277 277 277 278 278 279 280 281 281 282 281 280 278 277 276 275 274 273 272 272 272 272 272 272 272 271 269 267 266 265 265 265
281 282 282 282 282 282 282 282 282 282 282 282 281 281 281 281 281 281 281 281 281 281 281 281 280 280 281 281 280 280 279 279 279 279 279 279 279 279 279 279 280 280 280 280 280 280 280 280 280 279 279 278 278 277 276 276 276 277 277 278 279 280 281 281 280 279 277 276 275 274 273 272 272 271 271 271 271 271 270 268 267 265 264 263 263 264
281 282 282 282 282 282 282 282 282 282 282 282 281 281 281 281 281 281 281 281 281 281 281 281 281 280 280 280 280 280 279 278 278 279 278 278 278 278 278 278 279 279 279 279 279 279 279 278 278 278 278 277 277 276 276 275 275 276 276 277 278 279 280 280 279 278 276 275 274 273 273 272 271 271 270 270 270 269 268 266 264 263 262 261 262 262
281 282 282 282 282 282 282 282 282 282 282 282 282 281 281 281 281 281 281 281 280 280 280 280 280 280 280 279 279 279 279 278 278 278 277 277 277 277 277 277 278 278 278 278 277 277 277 277 277 277 277 276 276 275 275 274 275 275 275 276 277 278 279 279 278 277 275 274 273 273 272 271 271 270 269 269 268 267 266 264 262 261 260 260 260 261
281 281 281 282 282 282 282 282 282 282 281 281 281 281 281 281 281 281 281 280 280 280 280 280 280 279 279 279 279 279 279 278 277 277 276 276 276 276 276 276 276 276 276 276 276 276 276 276 276 276 275 275 274 274 274 273 274 274 275 275 276 277 278 278 277 275 274 273 272 272 271 271 270 269 268 267 266 265 263 261 260 259 258 258 259 260
281 281 281 281 281 281 281 281 281 281 281 281 281 281 281 281 281 281 280 280 280 280 279 279 279 279 278 278 278 278 278 277 276 276 276 275 275 275 275 275 275 275 275 275 275 275 275 275 275 274 274 274 273 273 273 272 273 273 274 275 276 276 277 277 276 274 273 272 272 271 271 270 269 268 266 265 264 263 261 259 258 257 257 257 258 260
280 281 281 281 281 281 281 280 280 280 280 280 280 280 280 280 280 280 280 280 279 279 279 278 278 278 278 277 277 277 277 276 275 275 275 274 274 274 274 273 273 273 273 273 273 273 273 273 273 273 273 272 272 272 271 271 272 272 273 274 275 275 276 275 275 273 272 271 271 271 270 269 267 266 265 263 262 260 259 257 256 256 256 257 258 259
281 281 281 281 281 280 280 280 280 280 279 279 279 279 280 279 279 279 279 279 279 278 278 278 278 278 277 276 276 276 276 275 274 274 273 273 273 273 272 272 272 272 272 272 272 272 272 272 272 271 271 271 271 271 270 270 271 271 272 273 274 274 275 274 273 272 271 271 270 270 269 267 266 264 263 262 260 258 257 255 255 254 255 256 257 259
281 281 281 281 281 281 280 280 280 280 280 279 279 279 279 279 279 279 279 278 278 278 278 277 277 277 276 275 275 275 274 274 273 272 272 272 272 272 271 271 270 270 270 270 270 270 270 270 270 270 270 270 270 269 269 269 270 270 271 272 273 273 273 273 272 271 270 270 269 269 268 266 264 263 261 260 258 256 255 254 253 253 254 256 257 259
282 282 282 282 281 281 281 281 281 280 280 280 280 280 280 279 279 279 279 278 278 277 277 276 276 275 275 274 274 274 273 273 272 271 271 271 270 270 270 269 269 269 269 269 269 269 269 269 269 269 269 268 268 268 268 269 269 270 270 271 272 272 272 272 271 270 269 269 268 268 266 265 263 261 260 258 256 255 253 252 252 253 254 255 257 259
283 283 282 282 282 282 282 281 281 281 281 281 280 280 280 279 279 279 279 278 277 276 276 275 275 275 274 274 273 273 272 272 271 270 270 269 269 269 269 268 267 267 267 268 267 267 267 267 267 267 267 267 267 267 268 268 268 269 270 270 271 271 271 270 270 269 268 268 267 266 265 263 262 260 258 256 255 253 252 251 251 252 254 256 258 259
283 283 283 283 282 282 282 282 282 281 281 281 281 280 280 279 279 279 279 278 277 276 275 275 275 274 274 273 272 271 271 270 270 269 269 268 267 267 267 267 266 266 266 266 266 266 266 266 266 266 266 266 266 267 267 267 268 268 269 269 270 270 270 269 268 268 267 267 266 265 264 262 260 258 257 255 253 251 250 250 251 252 254 256 258 260
283 283 283 283 283 283 282 282 282 282 281 281 281 280 280 279 279 279 279 278 276 275 275 274 274 273 272 272 271 270 270 269 269 268 267 266 266 266 266 265 265 264 264 264 264 265 265 265 265 265 266 266 266 266 266 266 267 267 268 268 269 269 268 268 267 267 267 266 265 264 262 261 259 257 255 253 252 250 249 249 250 252 254 256 259 261
283 283 283 283 283 282 282 282 282 281 281 281 280 280 280 279 278 278 278 277 275 274 274 274 273 272 271 271 270 269 269 268 267 266 266 265 264 264 264 264 263 263 263 263 263 264 264 264 264 265 265 265 265 265 265 266 266 267 267 267 268 268 267 267 266 266 266 265 264 263 261 259 257 256 254 252 250 249 249 249 250 252 255 257 259 261
283 283 283 283 282 282 282 281 281 281 281 280 280 279 279 278 278 277 276 275 274 273 273 272 272 270 269 269 268 268 267 266 265 264 264 263 263 263 263 263 262 262 262 262 262 263 263 263 263 264 264 264 265 265 265 265 266 266 266 267 267 267 266 266 265 265 265 264 263 262 260 258 256 254 252 250 249 248 248 249 251 253 255 257 259 261
283 283 282 282 282 282 281 281 281 281 280 279 279 278 278 277 277 276 275 273 272 271 271 270 270 269 268 267 266 266 266 265 264 263 262 262 262 262 262 262 262 262 262 262 262 262 263 263 263 263 263 264 264 264 264 265 265 265 266 266 266 266 265 265 264 264 264 263 262 261 259 257 255 253 251 249 248 247 248 249 251 253 255 257 259 261
282 282 282 282 281 281 281 281 280 280 279 278 278 277 277 276 275 274 273 271 270 270 269 268 268 267 266 265 264 264 264 264 263 261 261 261 261 261 261 261 261 261 261 261 261 262 262 262 263 263 263 263 263 263 264 264 264 265 265 265 265 265 264 264 264 263 263 262 261 259 258 256 254 252 250 248 247 247 248 249 251 253 255 257 259 261
282 282 281 281 281 280 280 280 279 279 278 277 276 276 275 274 273 272 270 269 269 268 267 266 265 265 264 263 263 262 262 262 261 260 260 260 260 260 261 261 261 261 261 261 261 261 262 262 262 262 262 262 262 263 263 263 264 264 264 264 264 264 264 263 263 262 262 261 260 258 257 254 252 250 249 247 247 247 248 250 251 253 256 258 260 262
281 281 280 280 280 279 279 279 278 277 276 275 274 273 272 271 270 269 268 267 266 266 265 264 264 263 262 262 261 261 261 261 260 259 259 259 260 260 260 261 261 261 261 262 262 262 262 262 262 262 262 262 262 262 263 263 263 263 263 263 263 263 263 263 262 262 261 260 259 257 255 253 251 249 248 247 246 247 248 250 252 254 256 258 260 263
280 280 280 279 279 278 278 277 276 275 274 273 272 270 269 268 267 266 265 264 264 263 263 263 262 262 261 261 261 260 260 260 260 259 259 259 259 260 260 261 261 261 261 262 262 262 262 261 261 261 261 261 262 262 262 262 262 263 263 263 262 262 262 262 262 261 260 259 258 256 254 252 250 248 247 246 246 247 249 251 253 255 257 259 261 263
279 279 278 278 278 277 276 275 273 272 271 270 268 267 266 265 264 263 263 262 262 262 261 261 261 261 261 261 261 261 261 260 260 260 260 260 260 260 261 261 261 261 261 261 261 261 261 261 261 260 260 261 261 261 261 261 262 262 262 262 262 262 261 261 261 260 259 258 257 255 253 251 249 247 246 246 246 247 249 251 253 256 258 260 262 264
278 278 277 277 276 275 274 272 270 268 267 266 265 264 263 262 262 261 261 261 261 261 261 261 261 260 260 260 261 261 260 260 260 260 260 260 261 261 261 261 261 261 261 261 260 260 260 260 260 260 260 260 260 260 260 261 261 261 261 261 261 261 261 261 260 259 258 257 255 254 252 250 248 247 246 246 247 248 250 252 254 256 259 261 263 265
276 276 276 275 273 272 270 268 267 265 264 263 262 261 261 260 260 260 260 261 261 261 261 261 261 262 262 262 262 261 261 261 261 261 261 261 262 261 261 261 261 261 260 260 260 260 259 259 259 259 259 259 259 259 259 260 260 260 260 260 261 260 260 260 259 259 257 256 254 253 251 249 247 246 246 246 247 249 251 253 255 257 259 261 263 265
275 275 274 272 270 268 266 264 263 262 261 260 260 260 259 260 260 260 261 261 261 262 262 262 263 263 263 263 263 263 263 263 262 262 262 262 262 262 261 261 261 260 260 259 259 259 258 258 258 257 257 257 257 258 258 259 259 259 260 260 260 260 260 260 259 258 257 255 253 252 250 248 247 246 246 247 248 250 252 254 256 258 260 262 264 265
273 272 271 269 266 264 262 261 260 260 259 259 258 258 259 259 260 261 262 262 262 262 263 263 264 264 264 264 264 264 264 264 263 263 263 262 262 262 261 261 260 260 259 259 258 258 257 257 257 256 256 256 256 257 257 258 259 259 259 259 259 259 259 259 258 257 256 254 253 251 249 248 247 246 247 247 249 251 253 255 257 259 261 263 265 266
271 270 268 266 263 261 260 259 258 258 257 257 258 258 259 259 260 261 262 263 264 264 264 264 264 264 264 264 265 265 265 264 264 264 263 262 262 261 261 260 260 259 259 258 258 257 256 256 255 255 255 255 256 256 257 257 258 258 258 259 259 259 259 258 258 257 255 254 252 250 249 248 247 247 247 249 250 252 254 257 259 261 263 264 266 268
268 267 265 263 261 259 258 257 257 256 256 257 257 258 258 259 260 261 262 263 264 265 265 265 264 264 264 264 264 264 264 264 264 264 263 262 261 261 260 259 259 258 258 257 257 256 256 255 255 254 254 255 255 256 256 257 257 257 258 258 258 258 258 258 257 256 254 253 251 250 249 248 248 248 249 250 252 254 256 259 261 263 265 267 268 270
265 264 263 261 259 258 256 256 256 256 256 256 256 257 257 257 257 257 259 261 263 265 266 266 265 264 263 263 263 263 263 263 263 263 262 261 260 259 259 258 258 257 257 256 256 255 255 254 254 254 254 254 254 255 255 256 256 257 257 257 257 257 257 256 256 255 253 252 251 250 249 249 249 249 250 252 254 257 259 261 263 265 267 269 271 272
262 262 261 259 258 257 256 256 255 255 255 255 255 254 253 252 251 253 256 259 262 265 266 266 265 263 262 262 262 262 262 262 262 261 261 260 259 259 258 257 256 255 255 255 254 254 254 254 253 253 254 254 254 254 255 255 256 256 256 257 256 256 255 255 255 254 253 251 251 250 249 249 250 251 253 255 257 260 262 264 266 268 269 271 273 274
262 260 259 258 257 256 256 255 254 254 253 252 251 249 247 246 248 251 254 257 261 265 267 266 265 263 262 262 262 262 262 261 261 260 260 259 258 258 257 256 255 254 253 253 253 253 253 253 253 253 253 253 253 254 254 255 255 255 255 256 255 255 254 254 253 252 252 251 251 250 250 251 252 253 256 258 260 262 265 267 268 270 272 273 275 276
263 260 258 257 256 255 254 253 252 251 249 248 245 243 242 244 248 251 254 257 261 265 266 265 264 263 262 262 262 262 261 260 260 259 258 258 257 256 255 254 253 253 252 252 252 252 252 252 252 252 253 253 253 253 253 254 254 254 254 254 254 253 253 252 251 251 251 251 251 251 252 253 254 256 258 260 263 265 267 269 270 272 273 275 276 277
261 260 257 256 255 253 252 250 249 247 244 241 238 237 240 245 249 251 253 256 260 263 263 262 261 261 262 262 261 261 260 259 258 257 256 256 255 254 253 252 252 251 250 250 250 250 251 251 251 252 252 252 252 253 253 253 253 253 253 253 252 251 251 250 250 250 250 251 252 252 253 255 256 258 260 262 264 267 269 270 272 273 275 276 277 279
259 258 256 254 252 250 248 246 243 240 237 234 233 237 243 247 249 250 251 254 257 258 258 258 258 259 260 260 260 259 258 256 255 254 254 253 253 252 251 250 250 249 249 249 249 250 250 251 251 251 251 251 251 252 252 252 252 251 251 250 250 250 249 249 250 250 251 251 252 254 255 257 258 260 262 264 266 268 270 272 273 274 276 277 278 279
257 256 254 251 249 247 244 240 236 232 230 230 235 242 247 248 247 246 248 251 253 254 254 254 255 256 258 258 258 257 255 254 253 252 251 250 249 249 249 248 248 248 248 248 249 249 250 250 251 251 251 251 250 250 250 250 250 250 249 249 248 248 248 249 250 251 252 253 254 255 257 258 260 261 263 265 267 269 271 273 275 276 277 278 279 280
255 254 251 249 245 241 237 231 227 225 227 233 241 247 249 247 244 243 245 249 251 251 251 251 252 254 255 256 255 254 253 251 250 249 248 247 246 246 246 246 247 247 248 248 249 249 250 250 250 251 251 251 250 249 249 249 248 248 248 247 247 248 248 249 251 252 253 255 256 257 259 260 262 263 265 267 269 270 273 275 276 277 278 279 280 281
254 252 249 245 240 234 228 224 222 225 231 240 246 248 246 243 240 241 244 247 250 250 250 250 251 252 253 253 252 251 250 248 247 246 245 244 244 244 245 245 246 247 248 248 249 250 250 250 250 250 250 250 250 249 247 247 247 247 246 247 247 248 249 250 252 253 255 257 258 260 261 263 264 266 267 269 270 272 274 276 278 279 280 280 281 281
Height
5673 5673 5673 5674 5674 5673 5673 5673 5673 5672 5671 5670 5669 5669 5669 5668 5667 5667 5667 5667 5667 5667 5666 5666 5666 5665 5665 5664 5663 5662 5662 5661 5661 5660 5660 5659 5658 5658 5657 5656 5655 5655 5654 5653 5653 5652 5651 5650 5649 5649 5648 5647 5647 5646 5645 5645 5644 5643 5643 5642 5641 5641 5640 5639 5639 5638 5638 5637 5637 5636 5635 5635 5634 5634 5633 5632 5631 5630 5629 5628 5628 5627 5626 5624 5623 5622
5669 5668 5668 5668 5669 5669 5668 5668 5668 5668 5667 5666 5665 5664 5664 5664 5663 5662 5662 5662 5662 5662 5662 5661 5661 5660 5660 5659 5658 5658 5657 5656 5656 5655 5655 5654 5654 5653 5652 5652 5651 5650 5649 5649 5648 5647 5647 5646 5645 5644 5643 5643 5642 5641 5640 5640 5639 5638 5638 5637 5637 5636 5636 5635 5634 5634 5633 5633 5632 5632 5631 5630 5630 5629 5628 5628 5627 5626 5625 5624 5623 5623 5621 5620 5619 5618
5665 5664 5664 5663 5664 5664 5664 5663 5663 5663 5663 5661 5660 5660 5660 5659 5659 5658 5657 5657 5657 5657 5657 5656 5656 5655 5655 5654 5654 5653 5652 5651 5651 5650 5650 5650 5649 5648 5648 5647 5646 5645 5645 5644 5643 5643 5642 5641 5640 5639 5638 5638 5637 5636 5635 5634 5634 5633 5633 5632 5632 5631 5631 5630 5630 5629 5628 5628 5628 5627 5626 5626 5625 5625 5624 5623 5623 5622 5621 5620 5619 5618 5617 5616 5615 5614
5660 5660 5659 5658 5658 5659 5659 5658 5658 5658 5658 5657 5656 5655 5655 5654 5654 5653 5653 5652 5652 5652 5651 5651 5651 5651 5650 5649 5649 5648 5648 5647 5646 5645 5645 5645 5644 5644 5643 5642 5641 5641 5640 5639 5639 5638 5637 5637 5636 5635 5634 5633 5632 5631 5630 5629 5629 5628 5628 5627 5626 5626 5625 5625 5624 5624 5624 5623 5623 5622 5622 5621 5621 5620 5620 5619 5618 5618 5617 5616 5615 5614 5613 5612 5611 5610
5655 5655 5654 5654 5654 5654 5654 5653 5653 5653 5653 5652 5651 5650 5649 5649 5649 5648 5648 5648 5647 5647 5646 5646 5646 5645 5645 5644 5644 5643 5643 5642 5641 5640 5640 5640 5639 5639 5638 5638 5637 5636 5635 5634 5634 5633 5633 5632 5631 5630 5629 5628 5627 5626 5625 5624 5624 5623 5622 5622 5621 5621 5620 5620 5619 5619 5618 5618 5618 5617 5617 5617 5616 5616 5615 5614 5614 5613 5612 5612 5611 5610 5609 5608 5607 5606
5650 5650 5649 5649 5648 5648 5648 5648 5648 5648 5648 5647 5646 5645 5644 5644 5643 5643 5643 5643 5642 5642 5641 5641 5641 5640 5640 5639 5639 5638 5638 5637 5636 5635 5635 5634 5634 5634 5633 5633 5632 5631 5630 5629 5629 5628 5628 5627 5626 5625 5625 5624 5623 5622 5621 5620 5619 5618 5617 5617 5616 5615 5615 5614 5614 5613 5613 5613 5613 5612 5612 5612 5611 5611 5610 5610 5609 5608 5608 5607 5606 5605 5604 5603 5603 5602
5645 5644 5644 5643 5643 5643 5643 5643 5643 5643 5642 5642 5641 5640 5639 5638 5638 5638 5637 5637 5637 5637 5636 5636 5635 5635 5635 5634 5633 5633 5633 5632 5631 5630 5629 5629 5629 5628 5628 5628 5627 5626 5625 5624 5623 5623 5622 5622 5621 5620 5620 5619 5618 5617 5616 5615 5614 5613 5612 5612 5611 5610 5610 5609 5609 5608 5608 5608 5608 5607 5607 5607 5606 5606 5605 5605 5604 5604 5603 5603 5602 5601 5600 5599 5598 5598
5639 5638 5638 5638 5637 5637 5637 5637 5637 5637 5637 5636 5636 5635 5634 5633 5633 5632 5632 5631 5631 5631 5631 5630 5630 5630 5629 5629 5628 5628 5627 5627 5626 5625 5624 5623 5623 5623 5623 5622 5621 5621 5620 5619 5618 5618 5617 5616 5616 5615 5615 5614 5613 5612 5611 5610 5609 5608 5608 5607 5606 5605 5605 5604 5604 5603 5603 5603 5602 5602 5602 5602 5601 5601 5601 5600 5600 5599 5598 5598 5597 5596 5596 5595 5594 5593
5633 5633 5632 5632 5631 5631 5631 5631 5630 5630 5631 5630 5630 5629 5628 5628 5627 5626 5626 5626 5626 5625 5625 5625 5625 5624 5623 5623 5623 5622 5622 5621 5620 5619 5619 5618 5618 5617 5617 5617 5616 5615 5614 5614 5613 5612 5612 5611 5610 5610 5609 5609 5608 5607 5606 5605 5604 5603 5603 5602 5601 5601 5600 5599 5599 5598 5598 5598 5597 5597 5597 5597 5596 5596 5596 5595 5595 5594 5594 5593 5593 5592 5591 5590 5590 5589
5626 5626 5626 5625 5625 5625 5625 5625 5624 5624 5624 5625 5624 5623 5622 5622 5621 5620 5620 5620 5620 5620 5620 5619 5619 5618 5618 5617 5617 5617 5616 5616 5615 5614 5613 5613 5612 5612 5611 5611 5610 5610 5609 5608 5608 5607 5606 5606 5605 5604 5604 5603 5603 5602 5601 5600 5600 5599 5598 5597 5597 5596 5595 5595 5594 5593 5593 5593 5592 5592 5592 5592 5592 5591 5591 5591 5590 5590 5589 5588 5588 5587 5587 5586 5586 5585
5619 5619 5619 5619 5619 5619 5619 5619 5618 5618 5618 5619 5618 5617 5616 5615 5614 5614 5613 5614 5614 5614 5614 5613 5613 5613 5613 5612 5611 5611 5611 5610 5609 5609 5608 5607 5607 5606 5606 5605 5604 5604 5603 5603 5602 5601 5601 5600 5599 5599 5598 5598 5598 5597 5596 5595 5595 5594 5593 5593 5592 5591 5591 5590 5589 5589 5588 5588 5588 5587 5587 5587 5587 5586 5586 5586 5585 5585 5584 5584 5583 5583 5582 5582 5581 5581
5612 5612 5612 5612 5612 5612 5612 5612 5612 5612 5612 5612 5612 5611 5610 5609 5608 5608 5608 5607 5607 5608 5608 5608 5607 5607 5607 5606 5605 5604 5604 5604 5604 5603 5602 5602 5601 5601 5600 5599 5599 5598 5598 5597 5596 5596 5595 5594 5594 5593 5593 5593 5592 5592 5591 5590 5590 5589 5588 5588 5587 5587 5586 5585 5585 5584 5583 5583 5583 5583 5582 5582 5582 5582 5582 5581 5581 5580 5580 5579 5579 5578 5578 5578 5577 5577
5604 5604 5605 5605 5605 5606 5605 5605 5605 5605 5605 5605 5605 5604 5603 5603 5602 5602 5602 5601 5601 5601 5601 5601 5601 5601 5601 5601 5600 5599 5598 5598 5598 5597 5597 5596 5595 5595 5594 5593 5593 5593 5592 5592 5591 5590 5589 5589 5588 5588 5587 5587 5587 5586 5586 5585 5585 5584 5583 5583 5582 5582 5581 5581 5580 5579 5579 5578 5578 5578 5578 5578 5577 5577 5577 5577 5576 5576 5575 5575 5574 5574 5573 5573 5573 5573
5597 5597 5598 5598 5598 5598 5598 5598 5598 5598 5598 5598 5598 5598 5597 5596 5596 5595 5595 5594 5594 5594 5594 5595 5595 5595 5595 5595 5594 5593 5593 5592 5591 5591 5591 5590 5590 5589 5588 5588 5587 5587 5587 5586 5585 5584 5584 5583 5583 5582 5582 5581 5581 5580 5580 5580 5579 5579 5578 5578 5578 5577 5576 5576 5575 5575 5574 5574 5573 5573 5573 5573 5573 5572 5572 5572 5572 5571 5571 5570 5570 5569 5569 5569 5569 5568
5589 5589 5590 5591 5591 5592 5591 5591 5591 5591 5591 5591 5591 5591 5590 5589 5588 5588 5588 5588 5587 5587 5588 5588 5588 5588 5589 5589 5589 5588 5587 5586 5585 5585 5585 5584 5583 5583 5583 5582 5581 5581 5581 5581 5580 5579 5578 5578 5578 5577 5576 5576 5575 5575 5575 5574 5574 5574 5573 5573 5573 5572 5572 5571 5571 5570 5570 5569 5569 5568 5568 5568 5568 5568 5568 5567 5567 5566 5566 5566 5565 5565 5565 5565 5564 5564
5582 5582 5583 5583 5584 5584 5584 5584 5583 5583 5583 5583 5583 5583 5583 5582 5582 5581 5581 5581 5580 5580 5580 5580 5581 5581 5582 5583 5583 5582 5581 5580 5579 5579 5579 5579 5578 5577 5576 5577 5576 5575 5575 5575 5574 5573 5572 5572 5572 5571 5570 5570 5569 5569 5569 5569 5569 5568 5568 5568 5568 5567 5567 5566 5566 5565 5565 5564 5564 5564 5563 5563 5563 5563 5563 5562 5562 5562 5561 5561 5561 5561 5561 5560 5560 5560
5575 5575 5575 5576 5576 5577 5577 5576 5576 5576 5575 5575 5575 5576 5575 5575 5575 5574 5574 5574 5573 5573 5573 5573 5573 5574 5575 5575 5575 5576 5576 5575 5573 5572 5573 5573 5572 5570 5570 5571 5571 5569 5569 5569 5568 5568 5567 5566 5566 5565 5565 5564 5564 5563 5563 5563 5563 5563 5563 5563 5563 5562 5562 5562 5561 5561 5560 5560 5559 5559 5559 5558 5558 5558 5558 5558 5557 5557 5557 5557 5557 5556 5556 5556 5556 5556
5568 5568 5568 5568 5569 5569 5569 5569 5568 5568 5568 5567 5567 5568 5568 5568 5568 5568 5568 5567 5566 5566 5566 5566 5566 5567 5568 5568 5568 5568 5569 5569 5568 5566 5566 5567 5566 5565 5564 5565 5565 5564 5563 5563 5563 5562 5561 5560 5560 5560 5559 5559 5558 5558 5558 5558 5558 5558 5558 5558 5558 5557 5557 5557 5556 5556 5556 5555 5555 5554 5554 5554 5554 5553 5553 5553 5553 5552 5552 5552 5552 5552 5552 5552 5552 5552
5560 5561 5561 5562 5561 5561 5561 5562 5561 5560 5559 5559 5559 5559 5560 5561 5561 5561 5561 5560 5559 5559 5559 5559 5559 5560 5561 5561 5561 5561 5562 5563 5562 5560 5560 5560 5560 5559 5558 5559 5559 5558 5558 5557 5557 5556 5555 5555 5554 5554 5554 5553 5553 5552 5552 5552 5552 5552 5552 5552 5552 5552 5552 5552 5552 5551 5551 5550 5550 5550 5549 5549 5549 5549 5548 5548 5548 5548 5548 5548 5548 5548 5548 5548 5548 5548
5553 5554 5554 5555 5554 5554 5554 5554 5554 5553 5552 5551 5551 5552 5553 5553 5553 5553 5553 5553 5553 5553 5553 5553 5553 5553 5553 5554 5554 5554 5554 5556 5556 5555 5553 5554 5554 5554 5552 5553 5553 5552 5551 5551 5550 5550 5549 5549 5549 5548 5548 5548 5547 5547 5547 5547 5547 5547 5547 5547 5547 5547 5547 5547 5547 5547 5546 5546 5545 5545 5545 5545 5544 5544 5544 5543 5543 5543 5543 5543 5543 5544 5544 5544 5543 5543
5547 5547 5548 5547 5547 5548 5547 5547 5547 5546 5545 5544 5544 5544 5545 5545 5546 5546 5546 5545 5546 5546 5546 5546 5546 5546 5546 5547 5547 5547 5547 5549 5549 5548 5547 5548 5548 5548 5547 5547 5547 5546 5545 5545 5544 5543 5543 5543 5543 5543 5543 5542 5542 5541 5541 5541 5541 5541 5541 5541 5541 5542 5542 5542 5542 5542 5541 5541 5541 5541 5540 5540 5540 5539 5539 5539 5539 5539 5539 5539 5539 5540 5540 5540 5540 5539
5539 5540 5540 5540 5540 5540 5541 5540 5539 5539 5538 5537 5537 5537 5537 5538 5538 5538 5538 5538 5538 5538 5538 5538 5539 5540 5540 5541 5541 5540 5540 5541 5542 5541 5540 5541 5541 5541 5541 5541 5541 5540 5539 5538 5538 5538 5537 5537 5537 5537 5537 5536 5536 5536 5536 5536 5536 5536 5536 5536 5536 5536 5537 5537 5537 5537 5537 5536 5536 5536 5536 5535 5535 5535 5535 5535 5535 5535 5535 5535 5535 5536 5536 5536 5536 5536
5532 5533 5533 5532 5532 5533 5533 5533 5532 5531 5531 5530 5530 5530 5530 5531 5531 5532 5531 5531 5531 5531 5531 5532 5532 5533 5533 5534 5534 5533 5533 5534 5534 5534 5534 5534 5534 5534 5534 5534 5534 5534 5533 5533 5532 5532 5531 5531 5531 5531 5531 5530 5530 5530 5530 5530 5530 5530 5530 5531 5531 5531 5531 5532 5532 5532 5532 5532 5532 5531 5531 5531 5530 5530 5530 5530 5530 5530 5531 5531 5531 5532 5532 5532 5532 5532
5523 5524 5525 5524 5524 5524 5525 5525 5524 5524 5523 5523 5523 5523 5523 5523 5524 5524 5524 5524 5524 5524 5524 5524 5525 5525 5526 5526 5527 5527 5527 5526 5527 5528 5527 5526 5527 5527 5528 5528 5528 5528 5527 5526 5526 5526 5526 5525 5525 5525 5525 5525 5524 5524 5525 5525 5525 5525 5525 5526 5526 5526 5526 5527 5527 5527 5527 5527 5527 5527 5526 5526 5526 5526 5526 5526 5526 5526 5527 5527 5527 5528 5528 5528 5528 5528
5514 5515 5516 5516 5516 5517 5517 5517 5517 5516 5516 5516 5515 5515 5515 5516 5516 5516 5516 5517 5517 5517 5517 5517 5517 5518 5518 5519 5520 5521 5520 5519 5520 5521 5520 5519 5519 5520 5521 5521 5521 5521 5520 5520 5520 5520 5520 5519 5518 5518 5519 5519 5519 5519 5519 5519 5519 5520 5520 5520 5521 5521 5521 5522 5522 5522 5522 5522 5522 5522 5522 5522 5521 5521 5521 5521 5522 5522 5523 5523 5523 5523 5523 5523 5523 5523
5506 5507 5507 5508 5508 5508 5508 5509 5508 5508 5508 5508 5508 5508 5508 5508 5508 5509 5509 5509 5510 5510 5510 5510 5510 5510 5510 5512 5513 5513 5513 5512 5513 5513 5513 5513 5513 5513 5513 5513 5514 5515 5514 5513 5513 5514 5514 5513 5513 5512 5513 5513 5513 5514 5514 5514 5514 5514 5515 5515 5516 5516 5516 5517 5517 5517 5517 5518 5518 5517 5517 5517 5517 5517 5517 5517 5518 5518 5518 5519 5519 5519 5519 5519 5519 5519
5498 5498 5499 5499 5500 5500 5500 5501 5501 5501 5501 5500 5500 5500 5500 5501 5502 5502 5502 5502 5502 5502 5503 5503 5502 5502 5503 5504 5505 5505 5506 5506 5506 5506 5505 5506 5506 5506 5506 5506 5508 5508 5508 5507 5507 5508 5508 5508 5507 5507 5507 5508 5508 5508 5508 5508 5509 5509 5510 5510 5511 5511 5511 5512 5512 5512 5513 5513 5513 5513 5513 5513 5513 5513 5513 5513 5513 5514 5514 5514 5515 5515 5515 5515 5515 5515
5490 5490 5491 5491 5492 5492 5492 5493 5493 5493 5493 5493 5493 5493 5493 5493 5494 5495 5494 5493 5494 5494 5495 5495 5494 5495 5496 5497 5497 5497 5499 5500 5499 5498 5498 5498 5499 5498 5498 5499 5501 5501 5501 5501 5501 5502 5502 5502 5501 5501 5502 5502 5503 5503 5503 5503 5503 5504 5504 5505 5506 5506 5506 5507 5507 5508 5508 5508 5508 5508 5508 5508 5508 5508 5508 5508 5509 5509 5510 5510 5511 5511 5511 5511 5511 5511
5482 5482 5483 5483 5483 5484 5484 5485 5486 5486 5486 5486 5485 5485 5485 5486 5487 5487 5487 5486 5486 5487 5488 5487 5487 5488 5489 5489 5489 5490 5491 5493 5492 5491 5491 5492 5492 5491 5491 5492 5494 5494 5494 5495 5495 5495 5495 5496 5496 5496 5496 5496 5497 5498 5498 5498 5498 5499 5499 5500 5501 5501 5502 5502 5502 5503 5503 5503 5503 5503 5503 5504 5504 5504 5504 5504 5505 5505 5506 5506 5506 5507 5507 5507 5507 5507
5474 5474 5475 5475 5476 5476 5477 5478 5478 5478 5478 5478 5478 5478 5477 5478 5479 5480 5479 5478 5478 5479 5479 5479 5479 5480 5481 5482 5482 5483 5483 5484 5485 5484 5484 5485 5484 5483 5483 5486 5487 5487 5487 5488 5489 5489 5489 5489 5490 5491 5491 5491 5491 5492 5492 5493 5493 5493 5494 5495 5496 5496 5497 5497 5498 5498 5498 5498 5499 5499 5499 5499 5499 5499 5500 5500 5500 5501 5501 5502 5502 5502 5503 5503 5503 5502
5467 5467 5468 5468 5468 5468 5468 5470 5471 5471 5471 5471 5471 5470 5470 5471 5471 5472 5471 5471 5471 5471 5471 5472 5472 5472 5473 5474 5475 5475 5476 5477 5477 5477 5478 5478 5477 5476 5476 5479 5480 5480 5480 5482 5483 5484 5483 5483 5485 5486 5486 5486 5486 5486 5487 5488 5488 5488 5489 5490 5491 5491 5492 5493 5493 5493 5494 5494 5494 5494 5495 5495 5495 5495 5495 5496 5496 5497 5497 5498 5498 5498 5498 5498 5498 5498
5459 5460 5460 5460 5460 5460 5461 5462 5463 5463 5464 5464 5463 5463 5463 5463 5463 5463 5463 5463 5463 5463 5464 5464 5464 5464 5465 5466 5467 5468 5468 5469 5469 5470 5471 5472 5471 5469 5470 5473 5473 5473 5474 5476 5478 5478 5478 5478 5479 5480 5481 5481 5481 5481 5482 5483 5483 5484 5484 5485 5486 5486 5487 5488 5488 5489 5489 5489 5490 5490 5490 5490 5491 5491 5491 5491 5492 5492 5493 5493 5493 5494 5494 5494 5494 5494
5452 5453 5453 5453 5453 5453 5454 5455 5455 5455 5456 5456 5456 5456 5456 5456 5456 5456 5456 5455 5456 5456 5457 5457 5457 5457 5457 5458 5459 5460 5461 5462 5462 5463 5464 5465 5465 5463 5464 5466 5467 5468 5468 5470 5471 5472 5473 5473 5474 5475 5476 5476 5476 5477 5477 5478 5478 5479 5480 5481 5481 5482 5482 5483 5484 5484 5484 5485 5485 5486 5486 5486 5486 5487 5487 5487 5488 5488 5488 5489 5489 5489 5489 5489 5489 5489
5444 5445 5446 5446 5446 5447 5447 5448 5448 5448 5448 5449 5448 5448 5448 5448 5448 5448 5448 5448 5448 5448 5449 5449 5450 5450 5450 5451 5452 5453 5453 5454 5455 5456 5458 5459 5458 5458 5458 5460 5461 5462 5463 5464 5465 5466 5468 5468 5469 5470 5470 5471 5471 5472 5472 5473 5473 5474 5475 5476 5476 5477 5478 5478 5479 5480 5480 5481 5481 5481 5482 5482 5482 5482 5483 5483 5483 5484 5484 5485 5485 5485 5485 5485 5485 5485
5437 5438 5438 5439 5439 5440 5440 5440 5440 5441 5441 5441 5441 5441 5441 5441 5441 5440 5440 5441 5441 5441 5442 5442 5443 5443 5444 5444 5445 5446 5447 5447 5448 5450 5452 5453 5453 5453 5453 5454 5455 5457 5458 5459 5460 5461 5462 5463 5464 5465 5465 5466 5466 5467 5468 5468 5469 5470 5471 5471 5472 5472 5473 5474 5475 5475 5476 5476 5477 5477 5477 5478 5478 5478 5478 5479 5479 5480 5480 5480 5481 5481 5481 5481 5481 5481
5429 5431 5432 5432 5433 5433 5433 5433 5433 5433 5434 5434 5433 5433 5433 5433 5433 5433 5433 5434 5434 5435 5435 5436 5436 5437 5437 5438 5439 5440 5440 5441 5443 5444 5446 5446 5447 5447 5448 5449 5450 5452 5453 5453 5454 5456 5457 5458 5458 5460 5461 5461 5461 5462 5463 5463 5464 5465 5466 5467 5467 5468 5468 5469 5470 5471 5472 5472 5473 5473 5473 5473 5474 5474 5474 5475 5475 5475 5476 5476 5476 5476 5476 5476 5477 5477
5422 5423 5424 5425 5426 5426 5426 5426 5426 5426 5426 5427 5426 5426 5426 5427 5427 5427 5427 5428 5428 5429 5429 5430 5430 5430 5431 5432 5433 5434 5435 5436 5437 5439 5440 5441 5441 5442 5443 5444 5445 5447 5448 5449 5449 5451 5452 5453 5454 5455 5456 5457 5457 5457 5458 5459 5460 5461 5461 5462 5463 5463 5464 5465 5466 5467 5467 5468 5468 5468 5469 5469 5469 5470 5470 5471 5471 5471 5472 5472 5472 5472 5472 5472 5472 5472
5414 5416 5418 5418 5419 5419 5419 5419 5419 5419 5419 5419 5419 5419 5420 5420 5421 5421 5422 5422 5423 5424 5424 5424 5424 5425 5426 5427 5428 5429 5429 5430 5432 5433 5435 5435 5436 5437 5438 5439 5440 5442 5443 5444 5445 5446 5447 5448 5449 5450 5451 5452 5453 5453 5453 5455 5456 5457 5457 5458 5458 5459 5459 5460 5461 5462 5463 5463 5464 5464 5465 5465 5465 5466 5466 5467 5467 5467 5467 5468 5468 5468 5468 5468 5468 5468
5407 5409 5411 5412 5412 5413 5413 5412 5412 5412 5412 5413 5413 5413 5414 5415 5416 5416 5417 5418 5418 5419 5419 5419 5419 5420 5421 5422 5423 5423 5424 5426 5427 5428 5430 5431 5432 5433 5433 5435 5436 5437 5438 5439 5441 5442 5443 5444 5445 5446 5446 5447 5448 5449 5449 5450 5451 5452 5453 5454 5454 5455 5455 5456 5457 5458 5458 5459 5460 5460 5461 5461 5462 5462 5462 5463 5463 5463 5463 5463 5463 5463 5463 5463 5463 5463
5400 5402 5403 5404 5405 5406 5406 5406 5405 5405 5406 5407 5408 5408 5409 5410 5411 5412 5412 5413 5413 5414 5414 5414 5415 5416 5416 5417 5418 5419 5420 5421 5422 5423 5425 5426 5427 5428 5429 5430 5431 5432 5433 5435 5436 5437 5438 5439 5440 5441 5442 5443 5444 5444 5445 5446 5447 5448 5449 5449 5450 5450 5451 5452 5453 5453 5454 5455 5456 5456 5457 5457 5458 5458 5458 5458 5459 5459 5459 5459 5459 5459 5459 5459 5459 5459
5393 5395 5396 5398 5399 5399 5400 5400 5399 5400 5401 5402 5403 5404 5405 5406 5407 5408 5408 5409 5409 5410 5410 5410 5411 5411 5412 5413 5413 5415 5416 5417 5418 5419 5421 5422 5423 5424 5425 5426 5427 5428 5429 5431 5432 5433 5434 5435 5436 5437 5438 5439 5440 5441 5442 5442 5443 5444 5445 5445 5445 5446 5447 5448 5449 5449 5450 5451 5451 5452 5453 5453 5453 5454 5454 5454 5454 5454 5454 5454 5454 5454 5454 5454 5454 5454
5387 5388 5390 5391 5393 5393 5394 5394 5394 5395 5396 5397 5398 5400 5400 5402 5403 5404 5405 5406 5406 5406 5406 5407 5407 5408 5408 5409 5409 5411 5412 5413 5414 5415 5416 5418 5419 5420 5421 5422 5423 5424 5425 5427 5428 5429 5430 5431 5432 5433 5434 5435 5436 5437 5438 5438 5439 5440 5441 5441 5442 5443 5443 5444 5444 5445 5446 5447 5447 5448 5449 5449 5450 5450 5450 5450 5450 5450 5450 5450 5450 5450 5450 5450 5450 5450
5381 5383 5384 5385 5387 5388 5388 5389 5390 5391 5392 5393 5395 5396 5397 5398 5400 5402 5402 5402 5402 5402 5402 5403 5403 5404 5405 5405 5406 5407 5408 5409 5410 5411 5412 5413 5415 5416 5417 5418 5419 5420 5422 5423 5424 5425 5426 5428 5428 5429 5430 5432 5433 5433 5434 5434 5435 5436 5437 5438 5438 5439 5439 5439 5440 5441 5442 5443 5443 5444 5445 5445 5446 5446 5446 5446 5446 5446 5446 5446 5445 5445 5445 5445 5445 5445
5376 5378 5379 5380 5381 5383 5384 5385 5386 5387 5388 5390 5391 5392 5393 5395 5397 5398 5399 5398 5398 5398 5398 5399 5400 5400 5401 5402 5403 5404 5405 5405 5407 5408 5408 5410 5411 5412 5413 5414 5416 5417 5418 5420 5421 5422 5423 5424 5425 5426 5427 5428 5429 5430 5430 5430 5431 5432 5433 5434 5435 5435 5435 5436 5436 5437 5438 5439 5439 5440 5441 5441 5442 5442 5442 5442 5442 5442 5442 5441 5441 5440 5440 5440 5440 5440
5371 5373 5374 5375 5377 5378 5380 5381 5382 5383 5384 5386 5387 5388 5389 5392 5394 5395 5395 5395 5394 5395 5395 5396 5397 5397 5397 5398 5399 5400 5402 5402 5403 5404 5405 5406 5408 5409 5410 5411 5413 5414 5415 5416 5417 5418 5419 5420 5421 5422 5423 5425 5425 5426 5426 5427 5428 5428 5429 5430 5431 5432 5432 5432 5433 5433 5434 5435 5436 5436 5437 5438 5438 5438 5438 5438 5438 5438 5438 5437 5437 5436 5436 5436 5435 5435
5368 5369 5370 5371 5373 5374 5376 5377 5378 5379 5381 5382 5383 5385 5387 5388 5390 5391 5391 5391 5391 5392 5392 5393 5393 5394 5394 5395 5396 5398 5398 5400 5401 5402 5403 5403 5404 5406 5407 5408 5409 5411 5412 5413 5414 5415 5416 5417 5418 5419 5420 5421 5422 5422 5423 5423 5424 5425 5426 5427 5427 5428 5428 5428 5429 5430 5431 5432 5432 5433 5433 5434 5434 5435 5435 5435 5435 5434 5433 5433 5432 5432 5431 5431 5431 5430
5363 5365 5366 5367 5369 5370 5372 5373 5374 5376 5377 5378 5380 5382 5383 5385 5387 5388 5388 5388 5389 5389 5389 5390 5391 5391 5392 5393 5394 5395 5396 5397 5398 5399 5400 5401 5402 5403 5404 5405 5407 5408 5409 5410 5411 5412 5413 5413 5415 5416 5417 5417 5418 5418 5419 5420 5421 5422 5422 5423 5423 5424 5424 5425 5426 5427 5428 5428 5429 5429 5430 5430 5431 5431 5431 5431 5431 5431 5430 5429 5428 5428 5427 5427 5426 5425
5360 5361 5362 5363 5365 5367 5368 5369 5371 5373 5373 5375 5376 5378 5380 5382 5383 5384 5384 5385 5386 5386 5387 5388 5388 5389 5389 5390 5391 5392 5393 5394 5395 5396 5398 5399 5400 5401 5402 5403 5403 5404 5405 5406 5408 5408 5409 5410 5411 5412 5413 5414 5414 5415 5416 5417 5418 5418 5419 5419 5420 5421 5421 5422 5423 5423 5424 5425 5425 5426 5426 5427 5427 5427 5427 5428 5428 5427 5426 5425 5424 5423 5423 5422 5422 5421
5357 5358 5358 5360 5361 5363 5364 5366 5368 5369 5370 5372 5373 5375 5377 5378 5380 5381 5381 5382 5383 5383 5384 5385 5386 5386 5387 5388 5389 5390 5391 5392 5393 5394 5395 5397 5398 5398 5399 5400 5401 5402 5403 5403 5404 5405 5406 5407 5408 5408 5409 5410 5411 5412 5413 5413 5414 5415 5416 5416 5417 5418 5418 5419 5420 5420 5421 5422 5422 5422 5423 5423 5423 5423 5424 5424 5423 5423 5422 5421 5420 5418 5418 5417 5417 5416
5353 5354 5355 5357 5358 5359 5361 5363 5364 5366 5367 5369 5371 5372 5373 5375 5376 5377 5378 5379 5380 5380 5381 5382 5383 5384 5385 5386 5387 5388 5389 5389 5390 5392 5393 5394 5395 5396 5397 5397 5398 5399 5400 5401 5402 5403 5403 5404 5405 5405 5406 5407 5408 5409 5409 5410 5411 5412 5413 5413 5414 5415 5415 5416 5417 5418 5418 5418 5419 5419 5419 5419 5419 5420 5420 5420 5419 5419 5418 5417 5416 5414 5413 5413 5412 5411
5350 5351 5352 5353 5355 5356 5358 5360 5361 5363 5364 5366 5368 5369 5370 5371 5373 5374 5375 5376 5377 5378 5378 5380 5381 5382 5383 5383 5384 5385 5386 5387 5388 5389 5390 5392 5393 5393 5394 5394 5395 5396 5397 5398 5399 5400 5401 5401 5402 5402 5403 5404 5405 5406 5406 5407 5408 5408 5409 5410 5411 5412 5413 5413 5414 5415 5415 5415 5415 5415 5416 5416 5416 5416 5416 5416 5415 5415 5414 5413 5411 5410 5408 5408 5407 5406